Home  > Rebate Center > Cooking > Range Hoods >  Approved for Outdoor Use: No >  Style: Chimney Style

Rebate Center: Chimney Style Not Approved for Outdoor Use Range Hoods

Sort:

  • Mail In Rebates
  • Instant Savings
  • Free Delivery
  • Product Reviews
  • Top Ratings
  • Quick Ship

Displaying 21 - 40 of 120 Products 20 40 50 products per page  

1

2

3

4

5

Bosch Benchmark Series HCG56651UC

36 Inch Wall Mount Chimney Range Hood with 600 CFM Internal Blower, 4-Speed Touch Controls, Heat Sensor, Built-in Timer, Glass Canopy and Non-Ducted Option

HCG56651UC   09/01/2016 - 12/31/2016 Save 10% + $550 on 4+ Piece Kitchen Package Download
Bertazzoni Design Series KG36CONX

36 Inch Wall Mount Chimney Range Hood with 600 CFM Internal Blower, Halogen Lights, Baffle Filters, Black Glass Front and Convertible to Recirculating

KG36CONX   01/01/2016 - 12/31/2016 Save Up to $2,350 Download
GE Profile PVW73

Wall Mount Glass Chimney Hood with 350 CFM Blower, Recirculating Option, 2-Level Halogen Lighting, Dishwasher-Safe Grease Filters and Optional Remote Control

PVW7301EJES 30" Slate 07/20/2016 - 12/31/2016 Save Up to $2,000 Download
PVW7301SJSS 30" Stainless Steel 07/20/2016 - 12/31/2016 Save Up to $2,000 Download
PVW7361EJES 36" Slate 07/20/2016 - 12/31/2016 Save Up to $2,000 Download
PVW7361SJSS 36" Stainless Steel 07/20/2016 - 12/31/2016 Save Up to $2,000 Download
BlueStar Manhattan Series BSMNHTTNIBC

Brushed Copper Island Hood with 3-Speed Blower Options, Hidden Controls, Baffle Filters, Halogen Lamps and Top Discharge

BSMANHI24BC 24" Width 01/01/2016 - 12/31/2016 Save $500 Download
BSMANHI30BC 30" Width 01/01/2016 - 12/31/2016 Save $500 Download
BSMANHI36BC 36" Width 01/01/2016 - 12/31/2016 Save $500 Download
BSMANHI42BC 42" Width 01/01/2016 - 12/31/2016 Save $500 Download
BSMANHI48BC 48" Width 01/01/2016 - 12/31/2016 Save $500 Download
BSMANHI54BC 54" Width 01/01/2016 - 12/31/2016 Save $500 Download
BSMANHI60BC 60" Width 01/01/2016 - 12/31/2016 Save $500 Download
BSMANHI66BC 66" Width 01/01/2016 - 12/31/2016 Save $500 Download
BlueStar Manhattan Series BSMNHTTNISS

Island Hood with 3-Speed Blower Options, 750 Color Options, Hidden Controls, Dishwasher Safe Baffle Filters, Halogen Lamps and Top Discharge

BSMANHI24SS 24" Width 01/01/2016 - 12/31/2016 Save $500 Download
BSMANHI30SS 30" Width 01/01/2016 - 12/31/2016 Save $500 Download
BSMANHI36SS 36" Width 01/01/2016 - 12/31/2016 Save $500 Download
BSMANHI42SS 42" Width 01/01/2016 - 12/31/2016 Save $500 Download
BSMANHI48SS 48" Width 01/01/2016 - 12/31/2016 Save $500 Download
BSMANHI54SS 54" Width 01/01/2016 - 12/31/2016 Save $500 Download
BSMANHI60SS 60" Width 01/01/2016 - 12/31/2016 Save $500 Download
BSMANHI66SS 66" Width 01/01/2016 - 12/31/2016 Save $500 Download
Prizer Hoods Wrangler Series WRAN

Wall Mount Chimney Range Hood with Optional Blowers, 3-Speed Fan Control, High-Heat Sensor, Halogen Lights, Handcrafted 16 Gauge Material and Baffle Filters

WRAN30SS 30" Width, Brushed Stainless Steel 01/01/2016 - 12/31/2016 Save $500 Download
WRAN36SS 36" Width, Brushed Stainless Steel 01/01/2016 - 12/31/2016 Save $500 Download
WRAN42SS 42" Width, Brushed Stainless Steel 01/01/2016 - 12/31/2016 Save $500 Download
WRAN48SS 48" Width, Brushed Stainless Steel 01/01/2016 - 12/31/2016 Save $500 Download
WRAN54SS 54" Width, Brushed Stainless Steel 01/01/2016 - 12/31/2016 Save $500 Download
WRAN60SS 60" Width, Brushed Stainless Steel 01/01/2016 - 12/31/2016 Save $500 Download
WRAN66SS 66" Width, Brushed Stainless Steel 01/01/2016 - 12/31/2016 Save $500 Download
BlueStar Manhattan Series BSMNHTTNIBB

Brushed Brass Island Hood with 3-Speed Blower Options, Hidden Controls, Baffle Filters, Halogen Lamps and Top Discharge

BSMANHI24BB 24" Width 01/01/2016 - 12/31/2016 Save $500 Download
BSMANHI30BB 30" Width 01/01/2016 - 12/31/2016 Save $500 Download
BSMANHI36BB 36" Width 01/01/2016 - 12/31/2016 Save $500 Download
BSMANHI42BB 42" Width 01/01/2016 - 12/31/2016 Save $500 Download
BSMANHI48BB 48" Width 01/01/2016 - 12/31/2016 Save $500 Download
BSMANHI54BB 54" Width 01/01/2016 - 12/31/2016 Save $500 Download
BSMANHI60BB 60" Width 01/01/2016 - 12/31/2016 Save $500 Download
BSMANHI66BB 66" Width 01/01/2016 - 12/31/2016 Save $500 Download
BlueStar Laramie Series BSLARAMIEBC

Brushed Copper Wall Mount Hood with 3-Speed Blower Options, Hidden Controls, Baffle Filters, Halogen Lamps and Reversible Top/Rear Exhaust

BSLARA30BC 30" Width 01/01/2016 - 12/31/2016 Save $500 Download
BSLARA36BC 36" Width 01/01/2016 - 12/31/2016 Save $500 Download
BSLARA42BC 42" Width 01/01/2016 - 12/31/2016 Save $500 Download
BSLARA48BC 48" Width 01/01/2016 - 12/31/2016 Save $500 Download
BSLARA54BC 54" Width 01/01/2016 - 12/31/2016 Save $500 Download
BSLARA60BC 60" Width 01/01/2016 - 12/31/2016 Save $500 Download
BSLARA66BC 66" Width 01/01/2016 - 12/31/2016 Save $500 Download
Prizer Hoods Pagoda Series PAGOI

Island Range Hood with Optional Blowers, 3-Speed Fan Control, High-Heat Sensor, Halogen Lights, Handcrafted 16 Gauge Material and Baffle Filters

PAGOI36SS 36" Width, Brushed Stainless Steel 01/01/2016 - 12/31/2016 Save $500 Download
PAGOI42SS 42" Width, Brushed Stainless Steel 01/01/2016 - 12/31/2016 Save $500 Download
PAGOI48SS 48" Width, Brushed Stainless Steel 01/01/2016 - 12/31/2016 Save $500 Download
PAGOI54SS 54" Width, Brushed Stainless Steel 01/01/2016 - 12/31/2016 Save $500 Download
PAGOI60SS 60" Width, Brushed Stainless Steel 01/01/2016 - 12/31/2016 Save $500 Download
BlueStar Wrangler Series BSWRANGLERSS

Wall Mount Hood with 3-Speed Blower Options, 750 Color Options, Hidden Controls, Dishwasher Safe Baffle Filters, Halogen Lamps and Reversible Top/Rear Exhaust

BSWRAN30SS 30" Width 01/01/2016 - 12/31/2016 Save $500 Download
BSWRAN36SS 36" Width 01/01/2016 - 12/31/2016 Save $500 Download
BSWRAN42SS 42" Width 01/01/2016 - 12/31/2016 Save $500 Download
BSWRAN48SS 48" Width 01/01/2016 - 12/31/2016 Save $500 Download
BSWRAN54SS 54" Width 01/01/2016 - 12/31/2016 Save $500 Download
BSWRAN60SS 60" Width 01/01/2016 - 12/31/2016 Save $500 Download
BSWRAN66SS 66" Width 01/01/2016 - 12/31/2016 Save $500 Download
BlueStar Laramie Series BSLARAMIESS

Wall Mount Hood with 3-Speed Blower Options, 750 Color Options, Hidden Controls, Dishwasher Safe Baffle Filters, Halogen Lamps and Reversible Top/Rear Exhaust

BSLARA30SS 30" Width 01/01/2016 - 12/31/2016 Save $500 Download
BSLARA36SS 36" Width 01/01/2016 - 12/31/2016 Save $500 Download
BSLARA42SS 42" Width 01/01/2016 - 12/31/2016 Save $500 Download
BSLARA48SS 48" Width 01/01/2016 - 12/31/2016 Save $500 Download
BSLARA54SS 54" Width 01/01/2016 - 12/31/2016 Save $500 Download
BSLARA60SS 60" Width 01/01/2016 - 12/31/2016 Save $500 Download
BSLARA66SS 66" Width 01/01/2016 - 12/31/2016 Save $500 Download
BlueStar Laredo Series BSLAREDOIBB

Brushed Brass Island Hood with 3-Speed Blower Options, Hidden Controls, Baffle Filters and Halogen Lamps

BSLAREI30BB 30" Width 01/01/2016 - 12/31/2016 Save $500 Download
BSLAREI36BB 36" Width 01/01/2016 - 12/31/2016 Save $500 Download
BSLAREI42BB 42" Width 01/01/2016 - 12/31/2016 Save $500 Download
BSLAREI48BB 48" Width 01/01/2016 - 12/31/2016 Save $500 Download
BSLAREI54BB 54" Width 01/01/2016 - 12/31/2016 Save $500 Download
BSLAREI60BB 60" Width 01/01/2016 - 12/31/2016 Save $500 Download
BSLAREI66BB 66" Width 01/01/2016 - 12/31/2016 Save $500 Download
Prizer Hoods Silverado Series SILVI

Island Chimney Range Hood with Optional Blowers, 3-Speed Fan Control, High-Heat Sensor, Halogen Lights, Handcrafted 16 Gauge Material and Baffle Filters

SILVI36SS 36" Width, Brushed Stainless Steel 01/01/2016 - 12/31/2016 Save $500 Download
SILVI42SS 42" Width, Brushed Stainless Steel 01/01/2016 - 12/31/2016 Save $500 Download
SILVI48SS 48" Width, Brushed Stainless Steel 01/01/2016 - 12/31/2016 Save $500 Download
SILVI54SS 54" Width, Brushed Stainless Steel 01/01/2016 - 12/31/2016 Save $500 Download
SILVI60SS 60" Width, Brushed Stainless Steel 01/01/2016 - 12/31/2016 Save $500 Download
Viking Professional 5 Series VCIH55408

54 Inch Island Mount Chimney Range Hood with Optional Blowers, Variable Fan Speeds, Heat Sensor, Dimmable LED Lighting, Backlit LED Knobs and Commercial-Type Filters

VCIH55408SS Stainless Steel 09/01/2016 - 12/31/2016 Instant Savings of up to $1,579 Download
VCIH55408AR Apple Red 09/01/2016 - 12/31/2016 Instant Savings of up to $1,579 Download
VCIH55408BK Black 09/01/2016 - 12/31/2016 Instant Savings of up to $1,579 Download
VCIH55408BU Burgundy 09/01/2016 - 12/31/2016 Instant Savings of up to $1,579 Download
VCIH55408CB Cobalt Blue 09/01/2016 - 12/31/2016 Instant Savings of up to $1,579 Download
VCIH55408GG Graphite Gray 09/01/2016 - 12/31/2016 Instant Savings of up to $1,579 Download
VCIH55408WH White 09/01/2016 - 12/31/2016 Instant Savings of up to $1,579 Download
Monogram ZV830SMSS

30 Inch Wall Mount Chimney Range Hood with 500 CFM Internal Blower, Perimeter Filter System, 4-Speed Fan, Halogen Lamps and Convertible to Recirculation

ZV830SMSS   01/01/2016 - 12/31/2016 Save Up To $3,798 Download
BlueStar Hampton Series BSHAMPTONBB

Brushed Brass Wall Mount Hood with 3-Speed Blower Options, Hidden Controls, Baffle Filters, Halogen Lamps and Reversible Top/Rear Exhaust

BSHAMP30BB 30" Width 01/01/2016 - 12/31/2016 Save $500 Download
BSHAMP36BB 36" Width 01/01/2016 - 12/31/2016 Save $500 Download
BSHAMP42BB 42" Width 01/01/2016 - 12/31/2016 Save $500 Download
BSHAMP48BB 48" Width 01/01/2016 - 12/31/2016 Save $500 Download
BSHAMP54BB 54" Width 01/01/2016 - 12/31/2016 Save $500 Download
BSHAMP60BB 60" Width 01/01/2016 - 12/31/2016 Save $500 Download
BSHAMP66BB 66" Width 01/01/2016 - 12/31/2016 Save $500 Download
BlueStar Laramie Series BSLARAMIEBB

Brushed Brass Wall Mount Hood with 3-Speed Blower Options, Hidden Controls, Baffle Filters, Halogen Lamps and Reversible Top/Rear Exhaust

BSLARA30BB 30" Width 01/01/2016 - 12/31/2016 Save $500 Download
BSLARA36BB 36" Width 01/01/2016 - 12/31/2016 Save $500 Download
BSLARA42BB 42" Width 01/01/2016 - 12/31/2016 Save $500 Download
BSLARA48BB 48" Width 01/01/2016 - 12/31/2016 Save $500 Download
BSLARA54BB 54" Width 01/01/2016 - 12/31/2016 Save $500 Download
BSLARA60BB 60" Width 01/01/2016 - 12/31/2016 Save $500 Download
BSLARA66BB 66" Width 01/01/2016 - 12/31/2016 Save $500 Download
Prizer Hoods Casino Royale Series CSNOI

Island Chimney Range Hood with Optional Blowers, 3-Speed Fan Control, High-Heat Sensor, Halogen Lights, Handcrafted 16 Gauge Material and Baffle Filters

CSNOI36SS 36" Width, Brushed Stainless Steel 01/01/2016 - 12/31/2016 Save $500 Download
CSNOI42SS 42" Width, Brushed Stainless Steel 01/01/2016 - 12/31/2016 Save $500 Download
CSNOI48SS 48" Width, Brushed Stainless Steel 01/01/2016 - 12/31/2016 Save $500 Download
CSNOI54SS 54" Width, Brushed Stainless Steel 01/01/2016 - 12/31/2016 Save $500 Download
CSNOI60SS 60" Width, Brushed Stainless Steel 01/01/2016 - 12/31/2016 Save $500 Download
Prizer Hoods Hampton Series HAMP

Wall Mount Chimney Range Hood with Optional Blowers, 3-Speed Fan Control, High-Heat Sensor, Halogen Lights, Handcrafted 16 Gauge Material and Baffle Filters

HAMP30SS 30" Width, Brushed Stainless Steel 01/01/2016 - 12/31/2016 Save $500 Download
HAMP36SS 36" Width, Brushed Stainless Steel 01/01/2016 - 12/31/2016 Save $500 Download
HAMP42SS 42" Width, Brushed Stainless Steel 01/01/2016 - 12/31/2016 Save $500 Download
HAMP48SS 48" Width, Brushed Stainless Steel 01/01/2016 - 12/31/2016 Save $500 Download
HAMP54SS 54" Width, Brushed Stainless Steel 01/01/2016 - 12/31/2016 Save $500 Download
HAMP60SS 60" Width, Brushed Stainless Steel 01/01/2016 - 12/31/2016 Save $500 Download
HAMP66SS 66" Width, Brushed Stainless Steel 01/01/2016 - 12/31/2016 Save $500 Download
Viking Professional 5 Series VCWH56048

60 Inch Wall Mount Chimney Range Hood with Optional Blowers, Variable Fan Speeds, Heat Sensor, Heat Lamps, LED Lighting, LED Knobs and Commercial-Type Filters

VCWH56048SS Stainless Steel 09/01/2016 - 12/31/2016 Instant Savings of up to $1,579 Download
VCWH56048AR Apple Red 09/01/2016 - 12/31/2016 Instant Savings of up to $1,579 Download
VCWH56048BK Black 09/01/2016 - 12/31/2016 Instant Savings of up to $1,579 Download
VCWH56048BU Burgundy 09/01/2016 - 12/31/2016 Instant Savings of up to $1,579 Download
VCWH56048CB Cobalt Blue 09/01/2016 - 12/31/2016 Instant Savings of up to $1,579 Download
VCWH56048GG Graphite Gray 09/01/2016 - 12/31/2016 Instant Savings of up to $1,579 Download
VCWH56048WH White 09/01/2016 - 12/31/2016 Instant Savings of up to $1,579 Download

Sort:

Displaying 21 - 40 of 120 Products 20 40 50 products per page  

1

2

3

4

5

Expand Your Results

Remove Category:

Remove Approved for Outdoor Use:

Remove Style:

Are you a builder
Quick LookQuick Look